| time (UTC) | temp F | wind direction | speed MPH | gust MPH | rain 1hr in | rain 24hr in | rain mn in | humidity % | barometer mb |
| 20260904203608 | 88 | 177 | 0.0 | 2.0 | 0.00 | 0.00 | 0.00 | 77 | 1012.5 |
| 20260904203104 | 88 | 177 | 0.0 | 2.0 | 0.00 | 0.00 | 0.00 | 74 | 1012.7 |
| 20260904202604 | 89 | 177 | 0.0 | 2.0 | 0.00 | 0.00 | 0.00 | 70 | 1012.8 |
| 20260904202108 | 89 | 177 | 0.0 | 3.0 | 0.00 | 0.00 | 0.00 | 72 | 1012.9 |
| 20260904201608 | 89 | 293 | 1.0 | 3.0 | 0.00 | 0.00 | 0.00 | 76 | 1013.0 |
| 20260904201603 | 89 | 296 | 1.0 | 3.0 | 0.00 | 0.00 | 0.00 | 74 | 1013.0 |
| 20260904200604 | 89 | 284 | 1.0 | 3.0 | 0.00 | 0.00 | 0.00 | 74 | 1012.9 |
| 20260904200105 | 89 | 307 | 1.0 | 6.0 | 0.00 | 0.00 | 0.00 | 77 | 1012.9 |
| 20260904195605 | 89 | 263 | 1.0 | 6.0 | 0.00 | 0.00 | 0.00 | 74 | 1013.1 |
| 20260904195104 | 88 | 262 | 2.0 | 6.0 | 0.00 | 0.00 | 0.00 | 77 | 1013.1 |
| 20260904194605 | 88 | 256 | 1.0 | 6.0 | 0.00 | 0.00 | 0.00 | 75 | 1013.2 |
| 20260904194104 | 88 | 163 | 0.0 | 2.0 | 0.00 | 0.00 | 0.00 | 77 | 1013.1 |
| 20260904193834 | 87 | 163 | 0.0 | 4.0 | 0.00 | 0.00 | 0.00 | 78 | 1013.3 |
| 20260904193337 | 87 | 163 | 1.0 | 4.0 | 0.00 | 0.00 | 0.00 | 78 | 1013.3 |
| 20260904192834 | 86 | 162 | 1.0 | 4.0 | 0.00 | 0.00 | 0.00 | 79 | 1013.4 |
| 20260904192101 | 86 | 162 | 1.0 | 4.0 | 0.00 | 0.00 | 0.00 | 79 | 1013.4 |
| 20260904191604 | 85 | 183 | 1.0 | 2.0 | 0.00 | 0.00 | 0.00 | 83 | 1013.4 |
| 20260904191103 | 85 | 183 | 0.0 | 2.0 | 0.00 | 0.00 | 0.00 | 85 | 1013.6 |
| 20260904190602 | 84 | 184 | 0.0 | 2.0 | 0.00 | 0.00 | 0.00 | 86 | 1013.7 |
| 20260904190101 | 83 | 183 | 1.0 | 2.0 | 0.00 | 0.00 | 0.00 | 86 | 1013.8 |
| 20260904185558 | 83 | 182 | 1.0 | 3.0 | 0.00 | 0.00 | 0.00 | 88 | 1013.9 |
| 20260904185058 | 82 | 183 | 1.0 | 3.0 | 0.00 | 0.00 | 0.00 | 88 | 1014.1 |
| 20260904184558 | 82 | 182 | 1.0 | 3.0 | 0.00 | 0.00 | 0.00 | 88 | 1014.2 |
| 20260904184059 | 82 | 182 | 1.0 | 3.0 | 0.00 | 0.00 | 0.00 | 88 | 1014.1 |
| 20260904183559 | 82 | 126 | 0.0 | 4.0 | 0.00 | 0.00 | 0.00 | 89 | 1014.1 |
| 20260904183054 | 81 | 0 | 1.0 | 4.0 | 0.00 | 0.00 | 0.00 | 88 | 1014.3 |
| 20260904182553 | 81 | 0 | 1.0 | 4.0 | 0.00 | 0.00 | 0.00 | 88 | 1014.5 |
| 20260904182323 | 82 | 0 | 1.0 | 4.0 | 0.00 | 0.00 | 0.00 | 88 | 1014.6 |
| 20260904181553 | 81 | 0 | 2.0 | 4.0 | 0.00 | 0.00 | 0.00 | 87 | 1014.9 |
| 20260904181053 | 82 | 0 | 1.0 | 4.0 | 0.00 | 0.00 | 0.00 | 87 | 1015.0 |
| 20260904180550 | 82 | 0 | 0.0 | 4.0 | 0.00 | 0.00 | 0.00 | 87 | 1015.0 |
| 20260904180320 | 82 | 0 | 0.0 | 0.0 | 0.00 | 0.00 | 0.00 | 87 | 1015.0 |
| 20260904175816 | 82 | 0 | 0.0 | 0.0 | 0.00 | 0.00 | 0.00 | 87 | 1015.1 |
| 20260904175045 | 82 | 0 | 0.0 | 0.0 | 0.00 | 0.00 | 0.00 | 87 | 1015.3 |
| 20260904174545 | 82 | 0 | 0.0 | 0.0 | 0.00 | 0.00 | 0.00 | 87 | 1015.2 |
| 20260904174044 | 82 | 0 | 0.0 | 0.0 | 0.00 | 0.00 | 0.00 | 86 | 1014.9 |
| 20260904173541 | 82 | 0 | 0.0 | 0.0 | 0.00 | 0.00 | 0.00 | 86 | 1014.8 |
| 20260904173040 | 82 | 0 | 0.0 | 0.0 | 0.00 | 0.00 | 0.00 | 86 | 1014.8 |
| 20260904172533 | 82 | 0 | 0.0 | 3.0 | 0.00 | 0.00 | 0.00 | 86 | 1014.9 |
| 20260904172031 | 82 | 0 | 0.0 | 3.0 | 0.00 | 0.00 | 0.00 | 86 | 1015.1 |
| 20260904171532 | 82 | 0 | 0.0 | 3.0 | 0.00 | 0.00 | 0.00 | 86 | 1015.2 |
| 20260904171034 | 82 | 0 | 0.0 | 3.0 | 0.00 | 0.00 | 0.00 | 85 | 1015.1 |
| 20260904170530 | 82 | 0 | 0.0 | 3.0 | 0.00 | 0.00 | 0.00 | 85 | 1015.1 |
| 20260904170029 | 82 | 0 | 0.0 | 3.0 | 0.00 | 0.00 | 0.00 | 84 | 1015.2 |
| 20260904165527 | 83 | 0 | 1.0 | 3.0 | 0.00 | 0.00 | 0.00 | 84 | 1015.2 |
| 20260904165026 | 83 | 0 | 1.0 | 8.0 | 0.00 | 0.00 | 0.00 | 84 | 1015.2 |
| 20260904164754 | 83 | 0 | 1.0 | 8.0 | 0.00 | 0.00 | 0.00 | 83 | 1015.0 |
| 20260904164024 | 83 | 0 | 2.0 | 8.0 | 0.00 | 0.00 | 0.00 | 83 | 1014.9 |
| 20260904163518 | 83 | 0 | 3.0 | 8.0 | 0.00 | 0.00 | 0.00 | 83 | 1014.8 |
| 20260904163018 | 83 | 92 | 3.0 | 8.0 | 0.00 | 0.00 | 0.00 | 83 | 1014.8 |
| 20260904162519 | 85 | 124 | 3.0 | 8.0 | 0.00 | 0.00 | 0.00 | 84 | 1014.9 |
| 20260904162019 | 85 | 127 | 2.0 | 8.0 | 0.00 | 0.00 | 0.00 | 85 | 1014.6 |
| 20260904161518 | 86 | 117 | 1.0 | 8.0 | 0.00 | 0.00 | 0.00 | 85 | 1014.4 |
| 20260904161018 | 86 | 181 | 1.0 | 5.0 | 0.00 | 0.00 | 0.00 | 85 | 1014.5 |
| 20260904160515 | 86 | 130 | 1.0 | 7.0 | 0.00 | 0.00 | 0.00 | 85 | 1014.4 |
| 20260904160017 | 86 | 123 | 1.0 | 7.0 | 0.00 | 0.00 | 0.00 | 86 | 1014.2 |
| 20260904155513 | 85 | 104 | 1.0 | 7.0 | 0.00 | 0.00 | 0.00 | 88 | 1014.2 |
| 20260904155013 | 83 | 169 | 1.0 | 7.0 | 0.00 | 0.00 | 0.00 | 90 | 1014.3 |
| 20260904154513 | 83 | 348 | 1.0 | 6.0 | 0.00 | 0.00 | 0.00 | 91 | 1014.4 |
| 20260904154007 | 83 | 158 | 1.0 | 6.0 | 0.00 | 0.00 | 0.00 | 91 | 1014.4 |
| 20260904153501 | 83 | 160 | 1.0 | 6.0 | 0.00 | 0.00 | 0.00 | 92 | 1014.2 |
| 20260904152959 | 83 | 161 | 1.0 | 6.0 | 0.00 | 0.00 | 0.00 | 91 | 1013.9 |
| 20260904152501 | 83 | 148 | 1.0 | 6.0 | 0.00 | 0.00 | 0.00 | 92 | 1014.0 |
| 20260904152001 | 83 | 147 | 1.0 | 6.0 | 0.00 | 0.00 | 0.00 | 92 | 1014.0 |
| 20260904151727 | 83 | 130 | 1.0 | 3.0 | 0.00 | 0.00 | 0.00 | 92 | 1014.1 |
| 20260904150957 | 83 | 131 | 0.0 | 3.0 | 0.00 | 0.00 | 0.00 | 92 | 1014.0 |
| 20260904150727 | 82 | 131 | 1.0 | 3.0 | 0.00 | 0.00 | 0.00 | 91 | 1014.0 |
| 20260904145955 | 82 | 131 | 1.0 | 5.0 | 0.00 | 0.00 | 0.00 | 92 | 1014.1 |
| 20260904145453 | 82 | 126 | 1.0 | 5.0 | 0.00 | 0.00 | 0.00 | 91 | 1014.0 |
| 20260904145228 | 82 | 161 | 0.0 | 3.0 | 0.00 | 0.00 | 0.00 | 91 | 1014.0 |
| 20260904144454 | 82 | 161 | 1.0 | 5.0 | 0.00 | 0.00 | 0.00 | 91 | 1014.0 |
| 20260904144223 | 82 | 161 | 1.0 | 5.0 | 0.00 | 0.00 | 0.00 | 91 | 1014.0 |
| 20260904143725 | 82 | 140 | 0.0 | 3.0 | 0.00 | 0.00 | 0.00 | 91 | 1014.0 |
| 20260904143449 | 82 | 130 | 1.0 | 4.0 | 0.00 | 0.00 | 0.00 | 91 | 1014.0 |
| 20260904142839 | 82 | 141 | 0.0 | 2.0 | 0.00 | 0.00 | 0.00 | 91 | 1013.9 |
| 20260904142723 | 82 | 141 | 0.0 | 3.0 | 0.00 | 0.00 | 0.00 | 91 | 1014.0 |
| 20260904141451 | 82 | 141 | 0.0 | 2.0 | 0.00 | 0.00 | 0.00 | 91 | 1013.9 |
| 20260904141219 | 82 | 141 | 0.0 | 2.0 | 0.00 | 0.00 | 0.00 | 92 | 1013.9 |
| 20260904140453 | 82 | 141 | 0.0 | 3.0 | 0.00 | 0.00 | 0.00 | 91 | 1013.8 |
| 20260904140448 | 82 | 141 | 0.0 | 3.0 | 0.00 | 0.00 | 0.00 | 91 | 1013.8 |
| 20260904135451 | 82 | 142 | 0.0 | 0.0 | 0.00 | 0.00 | 0.00 | 91 | 1013.8 |
| 20260904135220 | 82 | 0 | 0.0 | 0.0 | 0.00 | 0.00 | 0.00 | 91 | 1013.8 |
| 20260904134447 | 81 | 0 | 0.0 | 0.0 | 0.00 | 0.00 | 0.00 | 92 | 1013.8 |
| 20260904133948 | 81 | 0 | 0.0 | 0.0 | 0.00 | 0.00 | 0.00 | 91 | 1013.9 |
| 20260904133451 | 81 | 0 | 0.0 | 0.0 | 0.00 | 0.00 | 0.00 | 91 | 1013.8 |
| 20260904132947 | 80 | 0 | 0.0 | 0.0 | 0.00 | 0.00 | 0.00 | 91 | 1013.8 |
| 20260904132448 | 80 | 0 | 0.0 | 0.0 | 0.00 | 0.00 | 0.00 | 91 | 1013.8 |
| 20260904131948 | 80 | 0 | 0.0 | 0.0 | 0.00 | 0.00 | 0.00 | 91 | 1013.8 |
| 20260904131448 | 80 | 0 | 0.0 | 0.0 | 0.00 | 0.00 | 0.00 | 91 | 1013.7 |
| 20260904130947 | 80 | 0 | 0.0 | 0.0 | 0.00 | 0.00 | 0.00 | 91 | 1013.8 |
| 20260904130447 | 80 | 0 | 0.0 | 0.0 | 0.00 | 0.00 | 0.00 | 91 | 1013.7 |
| 20260904130219 | 80 | 0 | 0.0 | 0.0 | 0.00 | 0.00 | 0.00 | 91 | 1013.6 |
| 20260904125451 | 80 | 0 | 0.0 | 0.0 | 0.00 | 0.00 | 0.00 | 91 | 1013.5 |
| 20260904124948 | 80 | 0 | 0.0 | 0.0 | 0.00 | 0.00 | 0.00 | 91 | 1013.4 |
| 20260904124448 | 80 | 0 | 0.0 | 0.0 | 0.00 | 0.00 | 0.00 | 91 | 1013.3 |
| 20260904123946 | 80 | 0 | 0.0 | 0.0 | 0.00 | 0.00 | 0.00 | 91 | 1013.2 |
| 20260904123443 | 80 | 0 | 0.0 | 0.0 | 0.00 | 0.00 | 0.00 | 91 | 1013.1 |
| 20260904123216 | 80 | 0 | 0.0 | 0.0 | 0.00 | 0.00 | 0.00 | 91 | 1013.1 |
| 20260904122441 | 80 | 0 | 0.0 | 0.0 | 0.00 | 0.00 | 0.00 | 91 | 1013.1 |
| 20260904121942 | 80 | 0 | 0.0 | 0.0 | 0.00 | 0.00 | 0.00 | 91 | 1013.0 |
| 20260904121442 | 80 | 0 | 0.0 | 0.0 | 0.00 | 0.00 | 0.00 | 91 | 1013.0 |
| 20260904120943 | 80 | 0 | 0.0 | 0.0 | 0.00 | 0.00 | 0.00 | 91 | 1012.9 |
| 20260904120438 | 80 | 0 | 0.0 | 0.0 | 0.00 | 0.00 | 0.00 | 91 | 1012.9 |
| 20260904115941 | 80 | 0 | 0.0 | 0.0 | 0.00 | 0.00 | 0.00 | 91 | 1012.9 |
| 20260904115440 | 80 | 0 | 0.0 | 0.0 | 0.00 | 0.00 | 0.00 | 91 | 1012.8 |
| 20260904114939 | 80 | 0 | 0.0 | 0.0 | 0.00 | 0.00 | 0.00 | 91 | 1012.8 |
| 20260904114445 | 80 | 0 | 0.0 | 0.0 | 0.00 | 0.00 | 0.00 | 91 | 1012.8 |
| 20260904114440 | 80 | 0 | 0.0 | 0.0 | 0.00 | 0.00 | 0.00 | 91 | 1012.8 |
| 20260904113439 | 80 | 0 | 0.0 | 0.0 | 0.00 | 0.00 | 0.00 | 91 | 1012.9 |
| 20260904112942 | 80 | 0 | 0.0 | 0.0 | 0.00 | 0.00 | 0.00 | 91 | 1012.9 |
| 20260904112440 | 80 | 0 | 0.0 | 0.0 | 0.00 | 0.00 | 0.00 | 91 | 1012.9 |
| 20260904111938 | 80 | 0 | 0.0 | 0.0 | 0.00 | 0.00 | 0.00 | 91 | 1012.9 |
| 20260904111438 | 80 | 0 | 0.0 | 0.0 | 0.00 | 0.00 | 0.00 | 91 | 1012.9 |
| 20260904110939 | 80 | 0 | 0.0 | 0.0 | 0.00 | 0.00 | 0.00 | 91 | 1012.9 |
| 20260904110437 | 80 | 0 | 0.0 | 0.0 | 0.00 | 0.00 | 0.00 | 91 | 1012.8 |
| 20260904105937 | 80 | 0 | 0.0 | 0.0 | 0.00 | 0.00 | 0.00 | 91 | 1012.8 |
| 20260904105435 | 80 | 0 | 0.0 | 0.0 | 0.00 | 0.00 | 0.00 | 91 | 1012.8 |
| 20260904104938 | 80 | 0 | 0.0 | 0.0 | 0.00 | 0.00 | 0.00 | 91 | 1012.8 |
| 20260904104433 | 80 | 0 | 0.0 | 0.0 | 0.00 | 0.00 | 0.00 | 91 | 1012.7 |
| 20260904103932 | 80 | 0 | 0.0 | 0.0 | 0.00 | 0.00 | 0.00 | 91 | 1012.7 |
| 20260904103431 | 80 | 0 | 0.0 | 0.0 | 0.00 | 0.00 | 0.00 | 91 | 1012.5 |
| 20260904103203 | 80 | 0 | 0.0 | 0.0 | 0.00 | 0.00 | 0.00 | 91 | 1012.5 |
| 20260904103048 | 80 | 0 | 0.0 | 0.0 | 0.00 | 0.00 | 0.00 | 91 | 1012.5 |
| 20260904101931 | 80 | 0 | 0.0 | 0.0 | 0.00 | 0.00 | 0.00 | 91 | 1012.5 |
| 20260904101427 | 80 | 0 | 0.0 | 0.0 | 0.00 | 0.00 | 0.00 | 91 | 1012.4 |
| 20260904100928 | 80 | 0 | 0.0 | 0.0 | 0.00 | 0.00 | 0.00 | 91 | 1012.3 |
| 20260904100657 | 80 | 0 | 0.0 | 0.0 | 0.00 | 0.00 | 0.00 | 91 | 1012.3 |
| 20260904100147 | 80 | 0 | 0.0 | 0.0 | 0.00 | 0.00 | 0.00 | 91 | 1012.3 |
| 20260904095418 | 80 | 0 | 0.0 | 0.0 | 0.00 | 0.00 | 0.00 | 91 | 1012.3 |
| 20260904094915 | 80 | 0 | 0.0 | 0.0 | 0.00 | 0.00 | 0.00 | 91 | 1012.3 |
| 20260904094416 | 80 | 0 | 0.0 | 0.0 | 0.00 | 0.00 | 0.00 | 91 | 1012.2 |
| 20260904093915 | 80 | 0 | 0.0 | 0.0 | 0.00 | 0.00 | 0.00 | 91 | 1012.2 |
| 20260904093413 | 80 | 0 | 0.0 | 0.0 | 0.00 | 0.00 | 0.00 | 91 | 1012.2 |
| 20260904093140 | 80 | 0 | 0.0 | 0.0 | 0.00 | 0.00 | 0.00 | 91 | 1012.2 |
| 20260904092411 | 80 | 0 | 0.0 | 0.0 | 0.00 | 0.00 | 0.00 | 91 | 1012.1 |
| 20260904091909 | 80 | 0 | 0.0 | 0.0 | 0.00 | 0.00 | 0.00 | 91 | 1012.2 |
| 20260904091411 | 80 | 0 | 0.0 | 0.0 | 0.00 | 0.00 | 0.00 | 91 | 1012.2 |
| 20260904090907 | 80 | 0 | 0.0 | 0.0 | 0.00 | 0.00 | 0.00 | 91 | 1012.2 |
| 20260904090406 | 80 | 0 | 0.0 | 0.0 | 0.00 | 0.00 | 0.00 | 91 | 1012.3 |
| 20260904085903 | 80 | 0 | 0.0 | 0.0 | 0.00 | 0.00 | 0.00 | 91 | 1012.3 |
| 20260904085405 | 80 | 0 | 0.0 | 0.0 | 0.00 | 0.00 | 0.00 | 91 | 1012.2 |
| 20260904084903 | 80 | 0 | 0.0 | 0.0 | 0.00 | 0.00 | 0.00 | 91 | 1012.2 |
| 20260904084404 | 80 | 0 | 0.0 | 0.0 | 0.00 | 0.00 | 0.00 | 91 | 1012.3 |
| 20260904083901 | 80 | 0 | 0.0 | 0.0 | 0.00 | 0.00 | 0.00 | 91 | 1012.3 |
| 20260904083356 | 80 | 0 | 0.0 | 0.0 | 0.00 | 0.00 | 0.00 | 91 | 1012.3 |
| 20260904082854 | 80 | 0 | 0.0 | 0.0 | 0.00 | 0.00 | 0.00 | 91 | 1012.3 |
| 20260904082621 | 80 | 0 | 0.0 | 0.0 | 0.00 | 0.00 | 0.00 | 91 | 1012.3 |
| 20260904081850 | 80 | 0 | 0.0 | 0.0 | 0.00 | 0.00 | 0.00 | 91 | 1012.3 |
| 20260904081350 | 80 | 0 | 0.0 | 0.0 | 0.00 | 0.00 | 0.00 | 91 | 1012.2 |
| 20260904080849 | 80 | 0 | 0.0 | 0.0 | 0.00 | 0.00 | 0.00 | 91 | 1012.2 |
| 20260904080844 | 80 | 0 | 0.0 | 0.0 | 0.00 | 0.00 | 0.00 | 91 | 1012.2 |
| 20260904080116 | 80 | 0 | 0.0 | 0.0 | 0.00 | 0.00 | 0.00 | 91 | 1012.3 |
| 20260904075345 | 80 | 0 | 0.0 | 0.0 | 0.00 | 0.00 | 0.00 | 91 | 1012.4 |
| 20260904074844 | 80 | 0 | 0.0 | 0.0 | 0.00 | 0.00 | 0.00 | 91 | 1012.3 |
| 20260904074343 | 80 | 0 | 0.0 | 0.0 | 0.00 | 0.00 | 0.00 | 91 | 1012.3 |
| 20260904073841 | 80 | 0 | 0.0 | 0.0 | 0.00 | 0.00 | 0.00 | 91 | 1012.4 |
| 20260904073337 | 81 | 0 | 0.0 | 0.0 | 0.00 | 0.00 | 0.00 | 91 | 1012.4 |
| 20260904072840 | 81 | 0 | 0.0 | 0.0 | 0.00 | 0.00 | 0.00 | 91 | 1012.4 |
| 20260904072335 | 80 | 0 | 0.0 | 0.0 | 0.00 | 0.00 | 0.00 | 91 | 1012.5 |
| 20260904072104 | 80 | 0 | 0.0 | 0.0 | 0.00 | 0.00 | 0.00 | 91 | 1012.5 |
| 20260904071328 | 81 | 0 | 0.0 | 0.0 | 0.00 | 0.00 | 0.00 | 91 | 1012.5 |
| 20260904070830 | 81 | 0 | 0.0 | 0.0 | 0.00 | 0.00 | 0.00 | 91 | 1012.5 |
| 20260904070324 | 80 | 0 | 0.0 | 0.0 | 0.00 | 0.00 | 0.00 | 91 | 1012.5 |
| 20260904065825 | 81 | 0 | 0.0 | 0.0 | 0.00 | 0.00 | 0.00 | 91 | 1012.5 |
| 20260904065328 | 81 | 0 | 0.0 | 0.0 | 0.00 | 0.00 | 0.00 | 91 | 1012.6 |
| 20260904065323 | 81 | 0 | 0.0 | 0.0 | 0.00 | 0.00 | 0.00 | 91 | 1012.5 |
| 20260904064323 | 81 | 0 | 0.0 | 0.0 | 0.00 | 0.00 | 0.00 | 91 | 1012.6 |
| 20260904063826 | 81 | 0 | 0.0 | 0.0 | 0.00 | 0.00 | 0.00 | 91 | 1012.6 |
| 20260904063318 | 81 | 0 | 0.0 | 0.0 | 0.00 | 0.00 | 0.00 | 91 | 1012.7 |
| 20260904062813 | 81 | 0 | 0.0 | 0.0 | 0.00 | 0.00 | 0.00 | 91 | 1012.7 |
| 20260904062544 | 81 | 0 | 0.0 | 2.0 | 0.00 | 0.00 | 0.00 | 91 | 1012.6 |
| 20260904062044 | 81 | 0 | 0.0 | 2.0 | 0.00 | 0.00 | 0.00 | 91 | 1012.6 |
| 20260904061311 | 81 | 0 | 0.0 | 3.0 | 0.00 | 0.00 | 0.00 | 91 | 1012.6 |
| 20260904061042 | 81 | 0 | 1.0 | 3.0 | 0.00 | 0.00 | 0.00 | 91 | 1012.6 |
| 20260904060309 | 81 | 0 | 1.0 | 3.0 | 0.00 | 0.00 | 0.00 | 91 | 1012.7 |
| 20260904055809 | 81 | 0 | 1.0 | 4.0 | 0.00 | 0.00 | 0.00 | 91 | 1012.6 |
| 20260904055309 | 81 | 0 | 1.0 | 4.0 | 0.00 | 0.00 | 0.00 | 91 | 1012.6 |
| 20260904054804 | 81 | 0 | 1.0 | 4.0 | 0.00 | 0.00 | 0.00 | 91 | 1012.7 |
| 20260904054306 | 81 | 0 | 1.0 | 3.0 | 0.00 | 0.00 | 0.00 | 91 | 1012.7 |
| 20260904053804 | 81 | 0 | 1.0 | 3.0 | 0.00 | 0.00 | 0.00 | 91 | 1012.7 |
| 20260904053304 | 81 | 0 | 1.0 | 3.0 | 0.00 | 0.00 | 0.00 | 91 | 1012.7 |
| 20260904052804 | 81 | 0 | 1.0 | 4.0 | 0.00 | 0.00 | 0.00 | 91 | 1012.6 |
| 20260904052306 | 81 | 0 | 1.0 | 4.0 | 0.00 | 0.00 | 0.00 | 91 | 1012.6 |
| 20260904052033 | 81 | 0 | 1.0 | 3.0 | 0.00 | 0.00 | 0.00 | 91 | 1012.7 |
| 20260904051306 | 81 | 0 | 0.0 | 3.0 | 0.00 | 0.00 | 0.00 | 91 | 1012.7 |
| 20260904050804 | 81 | 0 | 1.0 | 5.0 | 0.00 | 0.00 | 0.00 | 91 | 1012.7 |
| 20260904050304 | 81 | 0 | 1.0 | 5.0 | 0.00 | 0.00 | 0.00 | 91 | 1012.6 |
| 20260904045804 | 81 | 0 | 1.0 | 5.0 | 0.00 | 0.00 | 0.00 | 91 | 1012.6 |
| 20260904045307 | 81 | 0 | 1.0 | 5.0 | 0.00 | 0.00 | 0.00 | 91 | 1012.5 |
| 20260904044801 | 81 | 0 | 1.0 | 4.0 | 0.00 | 0.00 | 0.00 | 91 | 1012.5 |
| 20260904044532 | 81 | 0 | 1.0 | 4.0 | 0.00 | 0.00 | 0.00 | 91 | 1012.5 |
| 20260904043800 | 81 | 0 | 1.0 | 4.0 | 0.00 | 0.00 | 0.00 | 91 | 1012.5 |
| 20260904043301 | 81 | 0 | 1.0 | 4.0 | 0.00 | 0.00 | 0.00 | 91 | 1012.7 |
| 20260904042800 | 81 | 0 | 1.0 | 4.0 | 0.00 | 0.00 | 0.00 | 91 | 1012.7 |
| 20260904042300 | 81 | 0 | 1.0 | 4.0 | 0.00 | 0.00 | 0.00 | 91 | 1012.6 |
| 20260904041755 | 80 | 0 | 1.0 | 5.0 | 0.00 | 0.00 | 0.00 | 91 | 1012.7 |
| 20260904041254 | 80 | 0 | 1.0 | 5.0 | 0.00 | 0.00 | 0.00 | 91 | 1012.7 |
| 20260904041024 | 80 | 0 | 1.0 | 5.0 | 0.00 | 0.00 | 0.00 | 91 | 1012.7 |
| 20260904040254 | 80 | 0 | 0.0 | 5.0 | 0.00 | 0.00 | 0.00 | 91 | 1012.7 |
| 20260904040024 | 80 | 0 | 0.0 | 3.0 | 0.00 | 0.00 | 0.00 | 91 | 1012.7 |
| 20260904035254 | 80 | 0 | 0.0 | 6.0 | 0.00 | 0.00 | 0.00 | 91 | 1012.7 |
| 20260904034754 | 81 | 0 | 0.0 | 6.0 | 0.00 | 0.00 | 0.00 | 91 | 1012.7 |
| 20260904034254 | 81 | 0 | 1.0 | 6.0 | 0.00 | 0.00 | 0.00 | 91 | 1012.7 |
| 20260904033754 | 81 | 0 | 1.0 | 6.0 | 0.00 | 0.00 | 0.00 | 91 | 1012.7 |
| 20260904033254 | 81 | 0 | 1.0 | 3.0 | 0.00 | 0.00 | 0.00 | 91 | 1012.7 |
| 20260904032753 | 81 | 0 | 1.0 | 3.0 | 0.00 | 0.00 | 0.00 | 91 | 1012.7 |
| 20260904032255 | 81 | 0 | 1.0 | 3.0 | 0.00 | 0.00 | 0.00 | 91 | 1012.7 |
| 20260904031752 | 81 | 0 | 0.0 | 3.0 | 0.00 | 0.00 | 0.00 | 91 | 1012.7 |
| 20260904031252 | 81 | 0 | 0.0 | 0.0 | 0.00 | 0.00 | 0.00 | 91 | 1012.7 |
| 20260904030751 | 81 | 0 | 0.0 | 0.0 | 0.00 | 0.00 | 0.00 | 91 | 1012.7 |
| 20260904030253 | 81 | 0 | 0.0 | 4.0 | 0.00 | 0.00 | 0.00 | 91 | 1012.7 |
| 20260904025745 | 81 | 0 | 0.0 | 4.0 | 0.00 | 0.00 | 0.00 | 91 | 1012.7 |
| 20260904025245 | 81 | 0 | 0.0 | 4.0 | 0.00 | 0.00 | 0.00 | 91 | 1012.7 |
| 20260904024747 | 81 | 0 | 1.0 | 5.0 | 0.00 | 0.00 | 0.00 | 91 | 1012.6 |
| 20260904024246 | 81 | 0 | 1.0 | 5.0 | 0.00 | 0.00 | 0.00 | 91 | 1012.5 |
| 20260904023745 | 81 | 0 | 1.0 | 3.0 | 0.00 | 0.00 | 0.00 | 91 | 1012.4 |
| 20260904023517 | 81 | 0 | 0.0 | 3.0 | 0.00 | 0.00 | 0.00 | 91 | 1012.4 |
| 20260904022745 | 81 | 0 | 0.0 | 3.0 | 0.00 | 0.00 | 0.00 | 91 | 1012.3 |
| 20260904022246 | 81 | 0 | 1.0 | 4.0 | 0.00 | 0.00 | 0.00 | 91 | 1012.3 |
| 20260904022018 | 81 | 0 | 1.0 | 4.0 | 0.00 | 0.00 | 0.00 | 90 | 1012.2 |
| 20260904021243 | 80 | 0 | 1.0 | 4.0 | 0.00 | 0.00 | 0.00 | 91 | 1012.2 |
| 20260904020741 | 80 | 0 | 1.0 | 3.0 | 0.00 | 0.00 | 0.00 | 90 | 1012.1 |
| 20260904020242 | 80 | 0 | 1.0 | 3.0 | 0.00 | 0.00 | 0.00 | 90 | 1012.0 |
| 20260904015742 | 80 | 0 | 1.0 | 3.0 | 0.00 | 0.00 | 0.00 | 90 | 1012.1 |
| 20260904015241 | 81 | 0 | 0.0 | 3.0 | 0.00 | 0.00 | 0.00 | 90 | 1012.0 |
| 20260904014741 | 81 | 0 | 1.0 | 3.0 | 0.00 | 0.00 | 0.00 | 90 | 1012.0 |
| 20260904014242 | 81 | 0 | 1.0 | 3.0 | 0.00 | 0.00 | 0.00 | 90 | 1012.0 |
| 20260904013741 | 81 | 0 | 1.0 | 3.0 | 0.00 | 0.00 | 0.00 | 90 | 1011.9 |
| 20260904013244 | 81 | 0 | 0.0 | 2.0 | 0.00 | 0.00 | 0.00 | 90 | 1011.9 |
| 20260904012738 | 81 | 0 | 0.0 | 2.0 | 0.00 | 0.00 | 0.00 | 90 | 1011.7 |
| 20260904012238 | 80 | 0 | 0.0 | 2.0 | 0.00 | 0.00 | 0.00 | 90 | 1011.7 |
| 20260904011739 | 80 | 0 | 0.0 | 1.0 | 0.00 | 0.00 | 0.00 | 90 | 1011.8 |
| 20260904011238 | 80 | 0 | 0.0 | 1.0 | 0.00 | 0.00 | 0.00 | 90 | 1011.7 |
| 20260904010737 | 80 | 0 | 0.0 | 1.0 | 0.00 | 0.00 | 0.00 | 90 | 1011.7 |
| 20260904010236 | 80 | 0 | 0.0 | 1.0 | 0.00 | 0.00 | 0.00 | 90 | 1011.7 |
| 20260904005737 | 80 | 0 | 0.0 | 2.0 | 0.00 | 0.00 | 0.00 | 90 | 1011.8 |
| 20260904005508 | 80 | 0 | 0.0 | 3.0 | 0.00 | 0.00 | 0.00 | 90 | 1011.7 |
| 20260904004737 | 80 | 0 | 1.0 | 4.0 | 0.00 | 0.00 | 0.00 | 90 | 1011.7 |
| 20260904004236 | 80 | 0 | 0.0 | 4.0 | 0.00 | 0.00 | 0.00 | 90 | 1011.7 |
| 20260904004231 | 80 | 0 | 1.0 | 4.0 | 0.00 | 0.00 | 0.00 | 90 | 1011.7 |
| 20260904003230 | 80 | 0 | 0.0 | 1.0 | 0.00 | 0.00 | 0.00 | 90 | 1011.7 |
| 20260904002729 | 80 | 0 | 0.0 | 1.0 | 0.00 | 0.00 | 0.00 | 90 | 1011.8 |
| 20260904002232 | 81 | 0 | 0.0 | 1.0 | 0.00 | 0.00 | 0.00 | 90 | 1011.7 |
| 20260904001725 | 81 | 0 | 0.0 | 0.0 | 0.00 | 0.00 | 0.00 | 90 | 1011.7 |
| 20260904001227 | 81 | 0 | 0.0 | 0.0 | 0.00 | 0.00 | 0.00 | 90 | 1011.8 |
| 20260904000725 | 80 | 0 | 0.0 | 0.0 | 0.00 | 0.00 | 0.00 | 90 | 1011.8 |
| 20260904000218 | 80 | 0 | 0.0 | 0.0 | 0.00 | 0.00 | 0.00 | 90 | 1011.9 |
| 20260903235716 | 80 | 0 | 0.0 | 0.0 | 0.00 | 0.00 | 0.00 | 90 | 1011.9 |
| 20260903235219 | 80 | 0 | 0.0 | 0.0 | 0.00 | 0.00 | 0.00 | 90 | 1011.9 |
| 20260903234715 | 80 | 0 | 0.0 | 1.0 | 0.00 | 0.00 | 0.00 | 90 | 1011.9 |
| 20260903234215 | 80 | 0 | 0.0 | 1.0 | 0.00 | 0.00 | 0.00 | 90 | 1011.9 |
| 20260903233712 | 80 | 0 | 0.0 | 0.0 | 0.00 | 0.00 | 0.00 | 90 | 1011.9 |
| 20260903233214 | 80 | 0 | 0.0 | 0.0 | 0.00 | 0.00 | 0.00 | 90 | 1012.0 |
| 20260903232713 | 80 | 0 | 0.0 | 0.0 | 0.00 | 0.00 | 0.00 | 90 | 1011.9 |
| 20260903232211 | 80 | 0 | 0.0 | 0.0 | 0.00 | 0.00 | 0.00 | 90 | 1011.9 |
| 20260903231943 | 80 | 0 | 0.0 | 0.0 | 0.00 | 0.00 | 0.00 | 90 | 1012.0 |
| 20260903231209 | 80 | 0 | 0.0 | 0.0 | 0.00 | 0.00 | 0.00 | 90 | 1012.0 |
| 20260903230707 | 80 | 0 | 0.0 | 0.0 | 0.00 | 0.00 | 0.00 | 90 | 1012.0 |
| 20260903230205 | 80 | 0 | 0.0 | 0.0 | 0.00 | 0.00 | 0.00 | 90 | 1012.0 |
| 20260903225702 | 80 | 0 | 0.0 | 1.0 | 0.00 | 0.00 | 0.00 | 90 | 1012.0 |
| 20260903225202 | 80 | 0 | 0.0 | 1.0 | 0.00 | 0.00 | 0.00 | 90 | 1012.0 |
| 20260903224658 | 80 | 0 | 0.0 | 1.0 | 0.00 | 0.00 | 0.00 | 90 | 1012.1 |
| 20260903224158 | 80 | 0 | 0.0 | 1.0 | 0.00 | 0.00 | 0.00 | 90 | 1012.1 |
| 20260903223657 | 80 | 0 | 0.0 | 1.0 | 0.00 | 0.00 | 0.00 | 90 | 1012.0 |
| 20260903223157 | 80 | 0 | 0.0 | 1.0 | 0.00 | 0.00 | 0.00 | 90 | 1012.0 |
| 20260903223152 | 80 | 0 | 0.0 | 1.0 | 0.00 | 0.00 | 0.00 | 90 | 1012.0 |
| 20260903222151 | 80 | 0 | 0.0 | 1.0 | 0.00 | 0.00 | 0.00 | 90 | 1012.1 |
| 20260903221648 | 80 | 0 | 0.0 | 2.0 | 0.00 | 0.00 | 0.00 | 90 | 1012.1 |
| 20260903221150 | 80 | 0 | 0.0 | 2.0 | 0.00 | 0.00 | 0.00 | 90 | 1012.2 |
| 20260903220644 | 80 | 0 | 0.0 | 0.0 | 0.00 | 0.00 | 0.00 | 90 | 1012.2 |
| 20260903220143 | 80 | 0 | 0.0 | 0.0 | 0.00 | 0.00 | 0.00 | 90 | 1012.2 |
| 20260903215646 | 80 | 0 | 0.0 | 0.0 | 0.00 | 0.00 | 0.00 | 90 | 1012.3 |
| 20260903215140 | 80 | 0 | 0.0 | 0.0 | 0.00 | 0.00 | 0.00 | 90 | 1012.4 |
| 20260903214641 | 80 | 0 | 0.0 | 0.0 | 0.00 | 0.00 | 0.00 | 90 | 1012.6 |
| 20260903214139 | 80 | 0 | 0.0 | 0.0 | 0.00 | 0.00 | 0.00 | 90 | 1012.8 |
| 20260903213639 | 80 | 0 | 0.0 | 0.0 | 0.00 | 0.00 | 0.00 | 89 | 1013.0 |
| 20260903213409 | 80 | 0 | 0.0 | 0.0 | 0.00 | 0.00 | 0.00 | 89 | 1013.1 |
| 20260903212640 | 80 | 0 | 0.0 | 2.0 | 0.00 | 0.00 | 0.00 | 90 | 1013.2 |
| 20260903212137 | 80 | 0 | 0.0 | 2.0 | 0.00 | 0.00 | 0.00 | 90 | 1013.3 |
| 20260903211635 | 80 | 0 | 0.0 | 3.0 | 0.00 | 0.00 | 0.00 | 89 | 1013.4 |
| 20260903211136 | 80 | 0 | 0.0 | 3.0 | 0.00 | 0.00 | 0.00 | 89 | 1013.4 |
| 20260903210635 | 80 | 0 | 1.0 | 3.0 | 0.00 | 0.00 | 0.00 | 89 | 1013.3 |
| 20260903210134 | 80 | 0 | 1.0 | 3.0 | 0.00 | 0.00 | 0.00 | 89 | 1013.2 |
| 20260903205635 | 80 | 0 | 1.0 | 2.0 | 0.00 | 0.00 | 0.00 | 90 | 1013.1 |
| 20260903205135 | 81 | 0 | 1.0 | 2.0 | 0.00 | 0.00 | 0.00 | 90 | 1013.2 |
| 20260903204634 | 80 | 0 | 1.0 | 2.0 | 0.00 | 0.00 | 0.00 | 90 | 1013.3 |
| 20260903204135 | 80 | 0 | 0.0 | 3.0 | 0.00 | 0.00 | 0.00 | 89 | 1013.3 |